Regional Weather Roundup
Issued by NWS

Home | Current Version | Previous Version | Graphics & Text | Print | Product List | Glossary On
Versions: 1 2 3 4 5 6 7 8 9 10 11 12 13 14 15 16 17 18 19 20 21 22 23 24 25 26 27 28 29 30 31 32 33 34 35 36 37 38 39 40 41 42 43 44 45 46 47 48 49 50
000
ASUS43 KDMX 140206
RWRIA

WEATHER ROUNDUP FOR IOWA
NATIONAL WEATHER SERVICE DES MOINES IA
800 PM CST WED DEC 13 2017

NOTE: "FAIR" INDICATES FEW OR NO CLOUDS BELOW 12,000 FEET WITH NO
SIGNIFICANT WEATHER AND/OR OBSTRUCTIONS TO VISIBILITY.

* - THESE STATIONS ARE NOT NWS STATIONS...THUS NOT UNDER NWS
QUALITY CONTROL.  THEY ALSO DO NOT REPORT WEATHER SUCH
AS PRECIPITATION OR FOG.

IAZ001>003-012>014-020>022-031>034-043>046-140300-
   NORTHWEST IOWA

CITY           SKY/WX    TMP DP  RH WIND       PRES   REMARKS
CARROLL *      CLOUDY    34  25  69 N22       29.89R WCI  22
CHEROKEE *     CLOUDY    33  26  77 N12       29.90F WCI  24
DENISON *      CLOUDY    36  27  69 N17G24    29.92R WCI  25
LE MARS *      CLOUDY    36  30  80 N16       29.93R WCI  26
ORANGE CITY *  CLOUDY    34  32  93 N12       29.91R WCI  25
SHELDON *      CLOUDY    32  27  80 NW12      29.89R WCI  23
SIOUX CITY     CLOUDY    38  27  64 N21       29.92R WCI  28
SPENCER        CLOUDY    32  25  75 N17       29.88R WCI  21
STORM LAKE *   CLOUDY    32  23  69 N22G33    29.88S WCI  19
$$

IAZ055>058-069>071-079>083-090>094-140300-
   SOUTHWEST IOWA

CITY           SKY/WX    TMP DP  RH WIND       PRES   REMARKS
ATLANTIC *     CLOUDY    39  28  65 N17       29.89R WCI  30
AUDUBON *      CLOUDY    36  28  75 N15G23    29.91R WCI  26
CLARINDA *     CLOUDY    41  27  56 N18G26      N/A
COUNCIL BLFS * CLOUDY    39  27  60 NW16G31   29.90S WCI  30
CRESTON *      CLOUDY    37  27  65 N20G28    29.88R WCI  27
HARLAN  *      CLOUDY    37  28  70 N24G32    29.93R WCI  26
LAMONI         CLOUDY    39  25  57 N17G35    29.85R WCI  30
RED OAK *      CLOUDY    41  27  56 NW14G23   29.91R
SHENANDOAH *   CLOUDY    41  27  56 N16G25    29.93R
$$

IAZ047>049-059>061-072>074-084-140300-
   CENTRAL IOWA

CITY           SKY/WX    TMP DP  RH WIND       PRES   REMARKS
AMES           CLOUDY    33  23  66 N23G31    29.86R WCI  21
ANKENY *       CLOUDY    36  19  51 NW16G31   29.87R WCI  26
BOONE *        CLOUDY    32  21  64 N18G29    29.85R WCI  20
CHARITON *     CLOUDY    36  23  60 N26G39    29.84R WCI  23
DES MOINES     CLOUDY    36  20  52 NW21G38   29.87R WCI  25
GRINNELL*      CLOUDY    32  25  76 NW21G28   29.83R WCI  19
KNOXVILLE *    CLOUDY    36  19  51 NW25G33   29.83R WCI  23
MARSHALLTOWN   CLOUDY    30  22  72 NW24G30   29.82R WCI  16
NEWTON *       CLOUDY    32  23  69 N15G33    29.84R WCI  22
PELLA *        CLOUDY    34  22  60 NW22G30   29.85R WCI  23
PERRY *        CLOUDY    33  21  61 NW20G29   29.88S WCI  22
$$

IAZ004>006-015-016-023>025-035-036-140300-
   NORTH CENTRAL IOWA

CITY           SKY/WX    TMP DP  RH WIND       PRES   REMARKS
ALGONA *       CLOUDY    30  21  69 N23G31    29.86R WCI  17
CLARION *      CLOUDY    28  23  80 N18G28    29.85R WCI  16
ESTHERVILLE    CLOUDY    27  23  85 N22G32    29.87R WCI  13
FORT DODGE *   CLOUDY    31  23  72 N15G28    29.87R WCI  20
MASON CITY     CLOUDY    24  17  74 N21G32    29.83R WCI   9
FOREST CITY *  CLOUDY    28  23  80 N17G25    29.84R WCI  16
WEBSTER CITY * CLOUDY    32  21  64 NW22G33   29.84R WCI  19
IOWA FALLS *   CLOUDY    30  23  75 N29       29.83R WCI  15
$$

IAZ007>011-017>019-026>030-037>042-050>054-066-140300-
   NORTHEAST IOWA

CITY           SKY/WX    TMP DP  RH WIND       PRES   REMARKS
CEDAR RAPIDS   CLOUDY    29  21  72 N22G30    29.78R WCI  15
CHARLES CITY * CLOUDY    25  19  80 N21G26    29.82R WCI  10
CLINTON *      CLOUDY    27  19  72 N21       29.75R WCI  13
DECORAH *      MOCLDY    21  16  79 N14G21    29.78R WCI   8
DUBUQUE        MOCLDY    24  16  71 N17G25    29.74R WCI  11
MONTICELLO *   CLOUDY    27  18  69 N22G33    29.77R WCI  12
OELWEIN *      CLOUDY    25  19  80 N23G32    29.80R WCI  10
WATERLOO       CLOUDY    26  17  68 N18G29    29.81R WCI  13
$$

IAZ064-065-067-068-078-140300-
   EAST CENTRAL IOWA

CITY           SKY/WX    TMP DP  RH WIND       PRES   REMARKS
DAVENPORT      CLOUDY    28  18  66 N24G33    29.76R WCI  14
IOWA CITY      CLOUDY    32  23  69 NW22G35   29.81R WCI  19
MT. PLEASANT * CLOUDY    33  24  69 NW22G30   29.79R WCI  21
MUSCATINE *    CLOUDY    32  23  69 N23G30    29.79R WCI  19
QUAD CITIES    CLOUDY    32  20  61 NW18G26   29.74R WCI  20
$$

IAZ062-063-075>077-085>089-095>099-140300-
   SOUTHEAST IOWA

CITY           SKY/WX    TMP DP  RH WIND       PRES   REMARKS
BURLINGTON     CLOUDY    34  26  72 NW14G28   29.77R WCI  25
FAIRFIELD *    CLOUDY    34  23  64 NW28G36   29.80R WCI  20
FORT MADISON * CLOUDY    36  27  69 NW23G31   29.79R WCI  24
KEOKUK *       CLOUDY    37  25  60 NW14G30   29.78R WCI  29
OSKALOOSA *    CLOUDY    33  24  70 NW22G31   29.83R WCI  21
OTTUMWA        CLOUDY    35  23  61 NW18G28   29.82R WCI  24
WASHINGTON *   CLOUDY    32  25  74 NW24G32   29.81R WCI  19
$$

ABBREVIATIONS USED IN REMARKS
   TC - TEMPERATURES IN CELSIUS
  WCI - WIND CHILL INDEX
   HX - HEAT INDEX
  VSB - VISIBILITY
$$





USA.gov is the U.S. government's official web portal to all federal, state and local government web resources and services.